This demonstration page uses our WeatherBlox Daily Observations layout. Learn more.

Left ArrowRight Arrow

Hourly Observations for May 31, 2019

Temp ( °F °C ) Dew Point ( °F °C ) Humidity (%) Winds ( mph kmh ) Pressure ( in mb ) Visibility ( mi km ) Precip ( " mm )
12:52 am 00:52 Clear 64 17.8 53 11.7 68 68 SW 9 15 29.88 1012 10 16 0.00 0.00
1:52 am 01:52 Clear 64 17.8 53 11.7 68 68 W 9 15 29.89 1012 10 16 0.00 0.00
2:52 am 02:52 Clear 62 16.7 54 12.2 75 75 WSW 7 11 29.89 1012 10 16 0.00 0.00
3:52 am 03:52 Clear 61 16.1 54 12.2 78 78 WSW 7 11 29.90 1013 10 16 0.00 0.00
4:52 am 04:52 Clear 61 16.1 54 12.2 78 78 W 7 11 29.91 1013 10 16 0.00 0.00
5:52 am 05:52 Clear 60 15.6 54 12.2 80 80 W 6 9 29.93 1014 10 16 0.00 0.00
6:52 am 06:52 Sunny 61 16.1 55 12.8 81 81 WNW 6 9 29.96 1014 10 16 0.00 0.00
7:52 am 07:52 Sunny 64 17.8 57 13.9 78 78 NW 6 9 29.96 1015 10 16 0.00 0.00
9:52 am 09:52 Sunny 71 21.7 58 14.4 63 63 WNW 7 11 29.99 1016 10 16 0.00 0.00
10:52 am 10:52 Sunny 74 23.3 58 14.4 57 57 undefined N/A 29.99 1016 10 16 0.00 0.00
11:52 am 11:52 Sunny 75 23.9 58 14.4 55 55 VRB 5 7 30.00 1016 10 16 0.00 0.00
12:52 pm 12:52 Sunny 76 24.4 57 13.9 52 52 NW 6 9 29.99 1016 10 16 0.00 0.00
1:52 pm 13:52 Sunny 78 25.6 58 14.4 50 50 VRB 6 9 29.98 1015 10 16 0.00 0.00
2:52 pm 14:52 Mostly Sunny 79 26.1 59 15 50 50 NW 7 11 29.97 1015 10 16 0.00 0.00
3:52 pm 15:52 Sunny 80 26.7 59 15 49 49 NNW 10 17 29.94 1014 10 16 0.00 0.00
4:52 pm 16:52 Sunny 80 26.7 57 13.9 45 45 NW 9 15 29.93 1014 10 16 0.00 0.00
5:52 pm 17:52 Sunny 79 26.1 58 14.4 49 49 WNW 7 11 29.93 1013 10 16 0.00 0.00
6:52 pm 18:52 Sunny 77 25 58 14.4 52 52 NW 5 7 29.92 1013 10 16 0.00 0.00
7:52 pm 19:52 Sunny 76 24.4 58 14.4 54 54 NNW 3 6 29.92 1013 10 16 0.00 0.00
8:52 pm 20:52 Clear 69 20.6 59 15 70 70 Calm 29.93 1014 10 16 0.00 0.00
9:52 pm 21:52 Clear 67 19.4 60 15.6 79 79 Calm 29.94 1014 10 16 0.00 0.00
10:52 pm 22:52 Clear 65 18.3 59 15 81 81 Calm 29.95 1014 10 16 0.00 0.00
11:52 pm 23:52 Clear 64 17.8 58 14.4 81 81 SSE 3 6 29.94 1014 10 16 0.00 0.00

Powered by AerisWeather